DW2213 Weather Reports


Display with metric or nautical units.
time (UTC)temp
F
wind
direction
speed
MPH
gust
MPH
rain 1hr
in
rain 24hr
in
rain mn
in
humidity
%
barometer
mb
20260831172306 83 117 0.0 5.0 0.00 0.00 0.00 74 1012.0
20260831171304 83 145 1.0 5.0 0.00 0.00 0.00 74 1011.9
20260831170305 84 130 1.0 5.0 0.00 0.00 0.00 72 1011.9
20260831165805 84 137 1.0 7.0 0.00 0.00 0.00 71 1011.9
20260831164805 85 147 2.0 5.0 0.00 0.00 0.00 69 1012.0
20260831164305 86 128 2.0 6.0 0.00 0.00 0.00 69 1012.0
20260831163805 86 138 2.0 6.0 0.00 0.00 0.00 68 1012.0
20260831162306 87 113 2.0 6.0 0.00 0.00 0.00 64 1012.2
20260831161305 88 132 1.0 5.0 0.00 0.00 0.00 56 1012.2
20260831160805 88 129 1.0 5.0 0.00 0.00 0.00 56 1012.2
20260831160305 89 151 2.0 5.0 0.00 0.00 0.00 54 1012.3
20260831155805 89 115 1.0 3.0 0.00 0.00 0.00 54 1012.3
20260831154805 88 144 2.0 5.0 0.00 0.00 0.00 55 1012.4
20260831154305 88 118 1.0 5.0 0.00 0.00 0.00 55 1012.5
20260831153805 88 142 2.0 8.0 0.00 0.00 0.00 56 1012.4
20260831152804 88 152 2.0 6.0 0.00 0.00 0.00 58 1012.5
20260831152306 88 145 2.0 5.0 0.00 0.00 0.00 59 1012.5
20260831151804 88 127 1.0 5.0 0.00 0.00 0.00 61 1012.5
20260831151305 88 144 1.0 3.0 0.00 0.00 0.00 63 1012.5
20260831150805 88 151 1.0 6.0 0.00 0.00 0.00 66 1012.6
20260831150305 87 153 0.0 5.0 0.00 0.00 0.00 67 1012.6
20260831145805 88 144 0.0 3.0 0.00 0.00 0.00 67 1012.5
20260831145306 88 127 1.0 5.0 0.00 0.00 0.00 67 1012.5
20260831144805 88 150 2.0 6.0 0.00 0.00 0.00 67 1012.6
20260831144304 88 165 2.0 5.0 0.00 0.00 0.00 67 1012.6
20260831143805 88 141 3.0 6.0 0.00 0.00 0.00 67 1012.6
20260831143305 88 140 2.0 6.0 0.00 0.00 0.00 67 1012.7
20260831142805 88 132 2.0 5.0 0.00 0.00 0.00 67 1012.7
20260831142306 88 133 2.0 5.0 0.00 0.00 0.00 67 1012.6
20260831141805 88 160 2.0 8.0 0.00 0.00 0.00 67 1012.6
20260831141305 87 186 2.0 6.0 0.00 0.00 0.00 69 1012.6
20260831140804 87 142 1.0 5.0 0.00 0.00 0.00 68 1012.7
20260831135805 88 147 0.0 7.0 0.00 0.00 0.00 67 1012.8
20260831135306 87 158 1.0 5.0 0.00 0.00 0.00 70 1012.7
20260831134805 87 119 1.0 5.0 0.00 0.00 0.00 69 1012.8
20260831134305 87 13 2.0 5.0 0.00 0.00 0.00 67 1012.8
20260831133805 88 74 1.0 3.0 0.00 0.00 0.00 65 1012.9
20260831133305 88 46 1.0 3.0 0.00 0.00 0.00 65 1012.9
20260831132805 88 342 1.0 3.0 0.00 0.00 0.00 66 1012.9
20260831132307 87 7 2.0 3.0 0.00 0.00 0.00 66 1012.8
20260831131805 88 1 2.0 6.0 0.00 0.00 0.00 65 1012.9
20260831131305 88 331 1.0 3.0 0.00 0.00 0.00 66 1012.9
20260831130805 88 88 1.0 5.0 0.00 0.00 0.00 66 1012.9
20260831130304 88 50 1.0 5.0 0.00 0.00 0.00 65 1012.9
20260831125805 87 50 0.0 3.0 0.00 0.00 0.00 67 1013.0
20260831125306 87 60 2.0 6.0 0.00 0.00 0.00 67 1013.1
20260831124804 87 53 2.0 6.0 0.00 0.00 0.00 66 1013.1
20260831124304 88 326 1.0 3.0 0.00 0.00 0.00 66 1013.2
20260831123304 88 24 1.0 3.0 0.00 0.00 0.00 65 1013.3
20260831122805 88 355 1.0 5.0 0.00 0.00 0.00 65 1013.3
20260831122306 88 98 1.0 5.0 0.00 0.00 0.00 67 1013.4
20260831121804 87 106 1.0 3.0 0.00 0.00 0.00 65 1013.4
20260831121304 87 56 0.0 3.0 0.00 0.00 0.00 65 1013.5
20260831120304 87 22 1.0 3.0 0.00 0.00 0.00 66 1013.4
20260831115805 88 264 1.0 3.0 0.00 0.00 0.00 65 1013.5
20260831115306 87 38 0.0 3.0 0.00 0.00 0.00 67 1013.6
20260831114805 87 46 1.0 3.0 0.00 0.00 0.00 67 1013.6
20260831114304 87 26 1.0 5.0 0.00 0.00 0.00 66 1013.6
20260831113804 87 356 0.0 3.0 0.00 0.00 0.00 65 1013.5
20260831113305 87 354 1.0 5.0 0.00 0.00 0.00 66 1013.6
20260831112805 87 41 1.0 6.0 0.00 0.00 0.00 67 1013.7
20260831112307 86 47 1.0 3.0 0.00 0.00 0.00 67 1013.7
20260831111805 86 0 2.0 5.0 0.00 0.00 0.00 66 1013.7
20260831111305 87 13 1.0 3.0 0.00 0.00 0.00 67 1013.8
20260831110805 86 330 1.0 5.0 0.00 0.00 0.00 67 1013.8
20260831110305 86 323 1.0 3.0 0.00 0.00 0.00 67 1013.9
20260831105306 86 346 0.0 3.0 0.00 0.00 0.00 67 1014.1
20260831103804 86 59 1.0 5.0 0.00 0.00 0.00 68 1014.1
20260831103304 86 48 0.0 2.0 0.00 0.00 0.00 69 1014.1
20260831102804 84 74 1.0 5.0 0.00 0.00 0.00 71 1014.1
20260831102306 84 1 1.0 6.0 0.00 0.00 0.00 71 1014.1
20260831101805 85 37 1.0 3.0 0.00 0.00 0.00 69 1014.1
20260831101304 85 29 1.0 3.0 0.00 0.00 0.00 70 1014.0
20260831100805 84 0 1.0 5.0 0.00 0.00 0.00 72 1014.1
20260831095306 84 38 1.0 5.0 0.00 0.00 0.00 72 1014.1
20260831094805 84 93 0.0 2.0 0.00 0.00 0.00 72 1014.1
20260831093304 84 96 1.0 3.0 0.00 0.00 0.00 71 1014.0
20260831092805 84 48 1.0 3.0 0.00 0.00 0.00 71 1014.0
20260831092306 84 37 1.0 3.0 0.00 0.00 0.00 71 1014.0
20260831091805 84 345 0.0 3.0 0.00 0.00 0.00 71 1013.9
20260831091304 83 320 0.0 1.0 0.00 0.00 0.00 72 1013.9
20260831090805 83 318 0.0 0.0 0.00 0.00 0.00 72 1013.8
20260831090305 82 309 0.0 0.0 0.00 0.00 0.00 73 1013.8
20260831085805 82 294 0.0 0.0 0.00 0.00 0.00 72 1013.7
20260831085306 82 294 0.0 0.0 0.00 0.00 0.00 73 1013.7
20260831084805 82 294 0.0 0.0 0.00 0.00 0.00 72 1013.6
20260831084305 81 295 0.0 0.0 0.00 0.00 0.00 73 1013.5
20260831083805 81 295 0.0 0.0 0.00 0.00 0.00 73 1013.4
20260831083305 80 294 0.0 0.0 0.00 0.00 0.00 74 1013.3
20260831082805 81 294 0.0 0.0 0.00 0.00 0.00 73 1013.3
20260831082306 80 297 0.0 0.0 0.00 0.00 0.00 74 1013.2
20260831081805 80 319 0.0 0.0 0.00 0.00 0.00 76 1013.2
20260831081305 79 313 0.0 0.0 0.00 0.00 0.00 76 1013.1
20260831080804 79 314 0.0 0.0 0.00 0.00 0.00 76 1013.1
20260831080305 79 314 0.0 0.0 0.00 0.00 0.00 77 1013.0
20260831075804 78 223 0.0 0.0 0.00 0.00 0.00 77 1012.9
20260831074304 78 223 0.0 0.0 0.00 0.00 0.00 79 1012.9
20260831073805 78 223 0.0 0.0 0.00 0.00 0.00 79 1012.9
20260831072804 77 223 0.0 0.0 0.00 0.00 0.00 80 1012.9
20260831072306 77 223 0.0 0.0 0.00 0.00 0.00 82 1012.9
20260831071805 76 223 0.0 0.0 0.00 0.00 0.00 82 1012.8
20260831070805 76 223 0.0 0.0 0.00 0.00 0.00 83 1012.7
20260831070304 75 223 0.0 0.0 0.00 0.00 0.00 83 1012.7
20260831065804 75 223 0.0 0.0 0.00 0.00 0.00 84 1012.7
20260831065306 75 223 0.0 0.0 0.00 0.00 0.00 85 1012.7
20260831064304 74 222 0.0 0.0 0.00 0.00 0.00 86 1012.5
20260831063804 74 222 0.0 0.0 0.00 0.00 0.00 86 1012.4
20260831063305 74 222 0.0 0.0 0.00 0.00 0.00 86 1012.4
20260831062306 73 222 0.0 0.0 0.00 0.00 0.00 87 1012.1
20260831061304 73 222 0.0 0.0 0.00 0.00 0.00 88 1012.0
20260831060305 73 222 0.0 0.0 0.00 0.00 0.00 88 1011.9
20260831055804 73 222 0.0 0.0 0.00 0.00 0.00 88 1011.8
20260831055306 73 222 0.0 0.0 0.00 0.00 0.00 88 1011.8
20260831054305 73 222 0.0 0.0 0.00 0.00 0.00 88 1011.7
20260831053805 73 222 0.0 0.0 0.00 0.00 0.00 88 1011.7
20260831053305 73 222 0.0 0.0 0.00 0.00 0.00 88 1011.7
20260831052804 73 222 0.0 0.0 0.00 0.00 0.00 88 1011.6
20260831052307 73 222 0.0 0.0 0.00 0.00 0.00 88 1011.6
20260831051805 73 222 0.0 0.0 0.00 0.00 0.00 88 1011.6
20260831051304 73 222 0.0 0.0 0.00 0.00 0.00 88 1011.6
20260831050805 73 222 0.0 0.0 0.00 0.00 0.00 88 1011.5
20260831050304 73 222 0.0 0.0 0.00 0.00 0.00 89 1011.5
20260831045804 73 222 0.0 0.0 0.00 0.00 0.00 88 1011.5
20260831045306 73 222 0.0 0.0 0.00 0.00 0.00 88 1011.5
20260831044804 73 222 0.0 0.0 0.00 0.00 0.00 88 1011.4
20260831043805 74 222 0.0 0.0 0.00 0.00 0.00 88 1011.4
20260831043305 74 222 0.0 0.0 0.00 0.00 0.00 89 1011.3
20260831041805 74 221 0.0 0.0 0.00 0.00 0.00 89 1011.3
20260831040805 74 221 0.0 0.0 0.00 0.00 0.00 88 1011.4
20260831040305 74 221 0.0 0.0 0.00 0.00 0.00 88 1011.4
20260831035804 74 221 0.0 0.0 0.00 0.00 0.00 88 1011.4
20260831035306 75 221 0.0 0.0 0.00 0.00 0.00 88 1011.4
20260831034804 75 221 0.0 0.0 0.00 0.00 0.00 88 1011.4
20260831034305 75 221 0.0 0.0 0.00 0.00 0.00 88 1011.3
20260831033805 75 221 0.0 0.0 0.00 0.00 0.00 88 1011.3
20260831033304 75 221 0.0 0.0 0.00 0.00 0.00 88 1011.4
20260831032804 75 221 0.0 0.0 0.00 0.00 0.00 88 1011.4
20260831032306 75 221 0.0 0.0 0.00 0.00 0.00 88 1011.4
20260831031804 75 221 0.0 0.0 0.00 0.00 0.00 88 1011.4
20260831030804 75 221 0.0 0.0 0.00 0.00 0.00 87 1011.4
20260831025804 75 221 0.0 0.0 0.00 0.00 0.00 87 1011.4
20260831025306 75 221 0.0 0.0 0.00 0.00 0.00 87 1011.4
20260831024304 75 221 0.0 0.0 0.00 0.00 0.00 87 1011.4
20260831023805 75 221 0.0 0.0 0.00 0.00 0.00 87 1011.4
20260831023305 75 221 0.0 0.0 0.00 0.00 0.00 87 1011.5
20260831022804 75 221 0.0 0.0 0.00 0.00 0.00 87 1011.5
20260831022306 75 221 0.0 0.0 0.00 0.00 0.00 87 1011.5
20260831021805 75 221 0.0 0.0 0.00 0.00 0.00 87 1011.4
20260831021305 76 221 0.0 0.0 0.00 0.00 0.00 87 1011.5
20260831020804 76 221 0.0 0.0 0.00 0.00 0.00 87 1011.5
20260831020304 76 221 0.0 0.0 0.00 0.00 0.00 87 1011.5
20260831015805 76 221 0.0 0.0 0.00 0.00 0.00 87 1011.5
20260831015306 76 221 0.0 0.0 0.00 0.00 0.00 87 1011.5
20260831014804 76 221 0.0 0.0 0.00 0.00 0.00 87 1011.5
20260831014304 76 221 0.0 0.0 0.00 0.00 0.00 87 1011.5
20260831013804 76 221 0.0 0.0 0.00 0.00 0.00 87 1011.5
20260831012804 76 221 0.0 0.0 0.00 0.00 0.00 87 1011.6
20260831012306 76 221 0.0 0.0 0.00 0.00 0.00 88 1011.6
20260831011804 76 221 0.0 0.0 0.00 0.00 0.00 87 1011.6
20260831011304 75 221 0.0 3.0 0.00 0.00 0.00 87 1011.6
20260831010804 75 228 1.0 3.0 0.00 0.00 0.00 87 1011.6
20260831010304 75 228 0.0 3.0 0.00 0.00 0.00 87 1011.6
20260831005804 75 262 1.0 3.0 0.00 0.00 0.00 87 1011.5
20260831005306 75 282 0.0 0.0 0.00 0.00 0.00 87 1011.4
20260831004804 76 283 0.0 0.0 0.00 0.00 0.00 87 1011.4
20260831004304 76 282 0.0 0.0 0.00 0.00 0.00 87 1011.4
20260831002804 76 284 0.0 0.0 0.00 0.00 0.00 88 1011.5
20260831002306 76 284 0.0 0.0 0.00 0.00 0.00 88 1011.6
20260831001804 76 284 0.0 0.0 0.00 0.00 0.00 87 1011.6
20260831001304 76 284 0.0 0.0 0.00 0.00 0.00 87 1011.6
20260831000304 76 284 0.0 0.0 0.00 0.00 0.00 87 1011.7
20260830235804 76 284 0.0 0.0 0.00 0.00 0.00 88 1011.7
20260830235306 76 284 0.0 0.0 0.00 0.00 0.00 87 1011.6
20260830234804 76 283 0.0 0.0 0.00 0.00 0.00 87 1011.6
20260830234304 76 283 0.0 0.0 0.00 0.00 0.00 87 1011.6
20260830233804 76 283 0.0 0.0 0.00 0.00 0.00 87 1011.7
20260830233304 76 283 0.0 0.0 0.00 0.00 0.00 87 1011.7
20260830232804 76 284 0.0 0.0 0.00 0.00 0.00 87 1011.7
20260830232306 76 284 0.0 0.0 0.00 0.00 0.00 87 1011.7
20260830230804 76 284 0.0 0.0 0.00 0.00 0.00 87 1011.7
20260830230303 76 284 0.0 2.0 0.00 0.00 0.00 87 1011.6
20260830225305 76 285 0.0 0.0 0.00 0.00 0.00 87 1011.6
20260830224804 76 284 0.0 0.0 0.00 0.00 0.00 87 1011.5
20260830224304 76 284 0.0 0.0 0.00 0.00 0.00 86 1011.5
20260830223804 76 285 0.0 0.0 0.00 0.00 0.00 86 1011.5
20260830222804 76 285 0.0 0.0 0.00 0.00 0.00 86 1011.6
20260830222306 77 284 0.0 0.0 0.00 0.00 0.00 86 1011.6
20260830221804 77 285 0.0 0.0 0.00 0.00 0.00 86 1011.6
20260830221304 77 285 0.0 0.0 0.00 0.00 0.00 86 1011.6
20260830220820 77 285 0.0 0.0 0.00 0.00 0.00 86 1011.5
20260830215804 77 285 0.0 1.0 0.00 0.00 0.00 86 1011.4
20260830215305 77 287 0.0 1.0 0.00 0.00 0.00 85 1011.4
20260830214804 77 286 0.0 0.0 0.00 0.00 0.00 85 1011.4
20260830214304 77 288 0.0 0.0 0.00 0.00 0.00 85 1011.4
20260830213803 77 286 0.0 0.0 0.00 0.00 0.00 85 1011.4
20260830213304 77 286 0.0 0.0 0.00 0.00 0.00 85 1011.4
20260830212804 77 286 0.0 0.0 0.00 0.00 0.00 85 1011.3
20260830212306 77 284 0.0 0.0 0.00 0.00 0.00 85 1011.2
20260830211804 77 291 0.0 0.0 0.00 0.00 0.00 85 1011.1
20260830211304 77 290 0.0 0.0 0.00 0.00 0.00 85 1011.1
20260830210804 78 290 0.0 0.0 0.00 0.00 0.00 84 1011.0
20260830210303 78 290 0.0 0.0 0.00 0.00 0.00 84 1011.0
20260830205804 78 290 0.0 0.0 0.00 0.00 0.00 84 1010.9
20260830205305 78 288 0.0 0.0 0.00 0.00 0.00 84 1010.8
20260830204804 78 308 0.0 2.0 0.00 0.00 0.00 84 1010.8
20260830204303 78 270 0.0 2.0 0.00 0.00 0.00 84 1010.7
20260830203304 78 270 0.0 2.0 0.00 0.00 0.00 84 1010.6
20260830202804 78 265 1.0 3.0 0.00 0.00 0.00 83 1010.5
20260830202305 78 259 0.0 3.0 0.00 0.00 0.00 83 1010.5
20260830201803 79 284 1.0 3.0 0.00 0.00 0.00 83 1010.4
20260830201304 79 292 0.0 2.0 0.00 0.00 0.00 82 1010.4
20260830200804 79 281 0.0 3.0 0.00 0.00 0.00 82 1010.4
20260830195803 79 205 0.0 0.0 0.00 0.00 0.00 82 1010.2
20260830195305 79 205 0.0 0.0 0.00 0.00 0.00 82 1010.1
20260830194804 79 205 0.0 0.0 0.00 0.00 0.00 81 1010.0
20260830194304 79 205 0.0 0.0 0.00 0.00 0.00 81 1009.9
20260830193803 79 201 0.0 0.0 0.00 0.00 0.00 80 1009.8
20260830193304 79 184 0.0 0.0 0.00 0.00 0.00 79 1009.7
20260830192803 80 184 0.0 0.0 0.00 0.00 0.00 79 1009.6
20260830192305 80 184 0.0 0.0 0.00 0.00 0.00 78 1009.5
20260830191804 80 184 0.0 0.0 0.00 0.00 0.00 77 1009.4
20260830191304 80 184 0.0 0.0 0.00 0.00 0.00 77 1009.3
20260830190803 81 184 0.0 2.0 0.00 0.00 0.00 75 1009.3
20260830190304 81 184 0.0 2.0 0.00 0.00 0.00 74 1009.3
20260830185306 83 156 1.0 3.0 0.00 0.00 0.00 70 1009.2
20260830184804 83 153 0.0 0.0 0.00 0.00 0.00 68 1009.2
20260830184304 84 153 0.0 0.0 0.00 0.00 0.00 65 1009.1
20260830183804 85 153 0.0 0.0 0.00 0.00 0.00 61 1009.1
20260830183304 85 153 0.0 0.0 0.00 0.00 0.00 60 1009.1
20260830182306 86 153 0.0 1.0 0.00 0.00 0.00 55 1009.0
20260830181804 86 153 0.0 2.0 0.00 0.00 0.00 55 1008.9
20260830180804 86 139 0.0 0.0 0.00 0.00 0.00 54 1008.9
20260830180304 86 139 0.0 0.0 0.00 0.00 0.00 54 1008.9
20260830175305 86 139 0.0 3.0 0.00 0.00 0.00 54 1008.8
20260830174803 86 145 0.0 2.0 0.00 0.00 0.00 55 1008.7
20260830174304 87 145 0.0 2.0 0.00 0.00 0.00 55 1008.7
20260830173804 87 150 1.0 3.0 0.00 0.00 0.00 54 1008.7
20260830172804 87 147 1.0 6.0 0.00 0.00 0.00 53 1008.7